MST,Max TemperatureF,Mean TemperatureF,Min TemperatureF,Max Dew PointF,MeanDew PointF,Min DewpointF,Max Humidity, Mean Humidity, Min Humidity, Max Sea Level PressureIn, Mean Sea Level PressureIn, Min Sea Level PressureIn, Max VisibilityMiles, Mean VisibilityMiles, Min VisibilityMiles, Max Wind SpeedMPH, Mean Wind SpeedMPH, Max Gust SpeedMPH,PrecipitationIn, CloudCover, Events, WindDirDegrees
2012-12-1,57,49,41,34,32,28,65,52,33,30.12,30.06,30.02,10,9,7,9,3,,0.00,0,,191
2012-12-2,59,49,39,36,33,31,70,52,33,30.07,29.98,29.88,10,10,8,7,3,,0.00,2,,224
2012-12-3,63,54,46,39,36,33,59,47,27,30.18,30.05,29.91,10,10,6,6,3,,0.00,3,,217
2012-12-4,59,51,43,34,33,30,68,52,31,30.35,30.27,30.19,10,10,5,6,2,,0.00,0,,93
2012-12-5,55,47,39,32,30,28,68,52,29,30.23,30.11,30.00,10,9,5,5,1,,0.00,0,,283
2012-12-6,57,48,39,30,28,25,68,45,22,29.99,29.92,29.85,10,9,5,7,1,,0.00,1,,305
2012-12-7,57,47,37,32,29,27,67,49,22,29.97,29.91,29.87,10,10,6,6,1,,0.00,0,,146
2012-12-8,57,46,35,28,22,14,60,37,12,29.93,29.86,29.79,10,10,10,9,4,,0.00,0,,137
2012-12-9,52,42,30,20,11,0,42,29,8,30.28,30.06,29.82,10,10,10,14,6,21,0.00,2,,324
2012-12-10,42,32,21,12,6,3,44,32,15,30.30,30.20,30.13,10,9,4,6,3,,0.00,0,,198
2012-12-11,44,36,27,18,12,8,51,36,16,30.17,30.08,29.99,10,8,2,8,1,,0.00,0,,162
2012-12-12,46,38,30,17,15,13,56,38,15,30.00,29.94,29.88,10,10,6,6,2,,0.00,0,,250
2012-12-13,55,46,37,23,16,9,41,29,14,29.95,29.84,29.68,10,10,9,12,4,,0.00,1,,158
2012-12-14,48,42,37,38,35,23,93,82,40,29.88,29.68,29.57,10,8,2,14,4,18,0.35,8,Rain,245
2012-12-15,42,38,35,34,31,22,89,76,54,29.92,29.85,29.81,10,9,2,6,3,,0.04,7,Rain,261
2012-12-16,43,39,32,28,24,19,79,57,39,30.10,30.00,29.92,10,10,4,14,5,18,0.00,3,,246
2012-12-17,44,38,32,33,29,24,82,69,48,30.09,30.02,29.92,10,10,6,7,3,,0.00,6,,187
2012-12-18,48,42,35,34,32,29,93,69,44,29.90,29.67,29.49,10,9,2,22,7,39,0.16,6,Rain-Thunderstorm,211
2012-12-19,39,34,25,28,12,6,79,44,19,30.45,30.04,29.55,10,10,5,17,8,31,0.00,2,Snow,291
2012-12-20,35,28,21,16,13,8,68,52,25,30.58,30.51,30.45,10,8,2,6,0,,0.00,0,,255
2012-12-21,36,28,21,18,15,14,75,58,31,30.48,30.39,30.28,10,8,2,5,1,,0.00,0,,67
2012-12-22,36,28,21,20,18,16,78,66,43,30.35,30.27,30.21,10,8,3,5,1,,0.00,0,,31
2012-12-23,39,32,26,26,23,19,78,64,45,30.26,30.14,30.02,10,9,6,6,1,,0.00,1,,247
2012-12-24,48,38,28,30,22,6,76,55,19,29.99,29.86,29.72,10,10,6,17,5,34,0.00,3,Rain,265
2012-12-25,39,34,28,14,8,6,51,35,18,30.22,30.11,29.97,10,10,5,12,6,20,0.00,0,,318
2012-12-26,37,32,27,26,19,13,75,56,32,30.03,29.87,29.76,10,9,2,9,3,,0.00,6,Snow,196
2012-12-27,42,35,28,23,20,12,72,53,26,29.98,29.85,29.78,10,10,9,12,5,21,0.00,5,,254
2012-12-28,39,32,25,14,12,10,58,42,23,30.26,30.16,30.00,10,10,9,10,5,16,0.00,0,,310
2012-12-29,37,32,26,17,14,12,64,51,25,30.29,30.18,30.06,10,8,2,8,2,,0.00,0,,37
2012-12-30,36,30,23,17,14,12,68,54,28,30.09,29.99,29.90,10,9,2,6,1,,0.00,3,,28
2012-12-31,41,34,27,21,16,12,80,50,24,30.17,30.02,29.91,10,10,6,8,3,17,0.00,2,,285